Location: Mococo
(38.0255°N, 122.1161°W)
Time: 00:21:03
(UTC+00:00)

CZ-2C R/B - Pass Details

Date: 13 February 2026
Orbit: 663 x 773 km, 98.4° (Epoch: 10 March)

Event Time Altitude Azimuth Distance (km) Brightness Sun altitude
Rises 12:48:03 0° 5° (N) 3,060 5.7 -26.7°
Reaches altitude 10° 12:50:20 10° 360° (N) 2,155 4.8 -26.2°
Enters shadow 12:51:16 16° 355° (N) 1,802 4.4 -26.0°
